Вернуться в каталог

CZ-6A DEB

АктивенPO
NORAD 55003·DEBRIS·🇨🇳 China

Запущен Nov 11, 2022 с Taiyuan Satellite Launch Center

Loading…

Ближайшие Пролёты (ближайшие 24 часа)

TLE

СвежийSource: Space-Track

Эпоха: Sep 14, 2026, 17:18 UTC

1 55003U 22151UT  26257.72132439  .00117701  00000-0  43846-2 0  9991
2 55003  98.6127 358.3452 0027461 263.3715  96.4394 15.26611666204152

Отслеживайте CZ-6A DEB в реальном времени с AllMySat

Download on the App Store